Tracking 23760 objects as of 28-Oct-2021
HD Live streaming from Space Station
objects crossing your sky now

DELTA 4 R/B

Track DELTA 4 R/B now!


NORAD ID: 35492
Int'l Code: 2009-033B
Perigee: 6,729.8 km
Apogee: 34,997.6 km
Inclination: 13.5 °
Period: 745.5 minutes
Semi major axis: 27234 km
RCS: 39.3633 m2 (large)
Launch date: June 27, 2009
Source: United States (US)
Launch site: AIR FORCE EASTERN TEST RANGE (AFETR)

Note: This is a ROCKET BODY
aabbcc
Your satellite tracking list
Your tracking list is empty




NASA's NSSDC Master Catalog

Two Line Element Set (TLE):
1 35492U 09033B   21300.46740878 -.00000156  00000-0  00000+0 0  9990
2 35492  13.4785 288.4755 5189679 101.5821  31.1382  1.93160768 87010
Source of the keplerian elements: AFSPC